Regional Weather Roundup
Issued by NWS Little Rock, AR

Home | Current Version | Previous Version | Graphics & Text | Print | Product List | Glossary On
Versions: 1 2 3 4 5 6 7 8 9 10 11 12 13 14 15 16 17 18 19 20 21 22 23 24 25 26 27 28 29 30 31 32 33 34 35 36 37 38 39 40 41 42 43 44 45 46 47 48 49
000
ASUS44 KLZK 290405
RWRLZK

WEATHER ROUNDUP FOR ARKANSAS
NATIONAL WEATHER SERVICE LITTLE ROCK AR
1100 PM CDT FRI AUG 28 2015

NOTE: "FAIR" INDICATES FEW OR NO CLOUDS BELOW 12,000 FEET WITH NO
SIGNIFICANT WEATHER AND/OR OBSTRUCTIONS TO VISIBILITY.

ARZ001-003-010-029-290500-
NORTHWEST ARKANSAS

CITY           SKY/WX    TMP DP  RH WIND       PRES   REMARKS
FAYETTEVILLE   MOCLDY    74  61  63 SE8       30.01R
FORT SMITH     CLOUDY    75  64  68 E5        29.98S
BENTONVILLE    CLOUDY    73  61  64 S3        30.02S
ROGERS         CLOUDY    73  62  68 S7        30.02S
SILOAM SPGS    PTCLDY    72  61  68 S5        30.00R
HIGHFILL       CLOUDY    73  65  75 S3        30.01R
$$

ARZ004-005-016-290500-
NORTH CENTRAL ARKANSAS

CITY           SKY/WX    TMP DP  RH WIND       PRES   REMARKS
BATESVILLE     PTCLDY    72  64  78 SE3       30.04R
FLIPPIN        MOCLDY    73  57  56 CALM      30.01S
MTN HOME       MOCLDY    69  61  75 SE5       30.02F
$$

ARZ040-041-290500-
WEST CENTRAL ARKANSAS

CITY           SKY/WX    TMP DP  RH WIND       PRES   REMARKS
MENA           PTCLDY    68  63  83 CALM      30.05R
MOUNT IDA      CLEAR     66  62  87 CALM      30.02R
$$

ARZ009-017-025-026-028-290500-
NORTHEAST ARKANSAS

CITY           SKY/WX    TMP DP  RH WIND       PRES   REMARKS
JONESBORO      PTCLDY    70  67  90 CALM      30.03S
NEWPORT        PTCLDY    73  68  84 CALM      30.05R
WALNUT RIDGE   MOCLDY    72  64  78 E3        30.04S
BLYTHEVILLE    PTCLDY    76  70  82 SE6       30.04S
$$

ARZ022-023-033-042-044-290500-
CENTRAL ARKANSAS

CITY           SKY/WX    TMP DP  RH WIND       PRES   REMARKS
LITTLE ROCK    PTCLDY    74  61  63 SE3       30.03R
N LITTLE ROCK  PTCLDY    75  62  63 SE5       30.03R
JACKSONVILLE   MOCLDY    69  63  80 CALM      30.02S
SEARCY         PTCLDY    68  64  87 CALM      30.04S
HOT SPRINGS    PTCLDY    72  61  68 E3        30.04R
RUSSELLVILLE   PTCLDY    71  61  70 CALM      30.02R
$$

ARZ036-290500-
EAST ARKANSAS

CITY           SKY/WX    TMP DP  RH WIND       PRES   REMARKS
WEST MEMPHIS   CLEAR     70  68  93 CALM      30.03S
$$

ARZ050-053-066-070-073-290500-
SOUTHWEST ARKANSAS

CITY           SKY/WX    TMP DP  RH WIND       PRES   REMARKS
ARKADELPHIA    FAIR      68  66  93 CALM      30.03R
CAMDEN         PTCLDY    68  64  88 CALM      30.02S
TEXARKANA      CLEAR     72  63  73 E3        30.02R
EL DORADO      CLEAR     68  62  81 NE3       30.02R
DE QUEEN       CLEAR     66  64  93 CALM      30.00R
$$

ARZ056-057-069-290500-
SOUTHEAST ARKANSAS

CITY           SKY/WX    TMP DP  RH WIND       PRES   REMARKS
PINE BLUFF     PTCLDY    66  63  90 CALM      30.03R
STUTTGART      CLEAR     72  63  73 CALM      30.04R
MONTICELLO     CLEAR     67  63  87 CALM      30.03R

$$




USA.gov is the U.S. government's official web portal to all federal, state and local government web resources and services.